Погода в Костюковичи

Погода в Костюковичи : погода сейчас, прогноз погоды и архив. Всё, что Вы хотите узнать о погоде в Костюковичи!

Поиск расширенной информации на нашем сайте:

Другие новости

Новости СМИ2

Главная страница сайта

Новости сайта

03.07.2017

Напоминаем, что на нашем специализированном сайте Метеоцентр.Азия вы можете получить высокодетализированные автоматические прогнозы погоды по пунктам России, СНГ и мира в авиационном формате (включающие направление и скорость ветра, видимость, явления погоды, количество и форму облачности, нижнюю и верхнюю границу облачности).

Рекомендуем: церетон

Погода в Костюковичи - сегодня

Время (UTC), дата Ветер
(°,м/с) 
Видим.   Явления Облачность Т
(°С)
Тd
(°С)
f(%) Тe
(°С)
Pmin
(гПа)
dP
(гПа)
Po
(мм)
O2
(г/м3)
Тmin Tmax R s Состояние
почвы
21 19.07.17 050 (СВ) 23000 м    4/0 средняя 
[Ac inh]
+14.9 +12.8 87 +21  1017.4  -0.3  748  283           
00 20.07.17 тихо ()   7000 м  дымка  8/0 средняя 
[Ac inh]
+14 +13.2 95 +20  1017.1  -0.4  748  284           
03 20.07.17 100 (В) 35000 м    9/5 1000 м средняя 
[Sc|Ac trans]
+13.5 +11.9 90 +19  1016.3  -0.8  747  285           
06 20.07.17 180 (Ю) 35000 м    4/0 средняя 
[Ac trans]
+19.7 +12.9 65 +26  1015.6  -0.2  747  278  +12.7         
09 20.07.17 210 (ЮЗ) 35000 м    9/9 1000 м 
[Cu Sc]
+23.2 +11.6 48 +27  1014.3  -1  746  275           
12 20.07.17 300 (СЗ) 35000 м    9/9 1000 м 
[Cu Sc]
+20.7 +13.9 65 +28  1013.4  -1.1  746  276           
15 20.07.17 240 (ЮЗ) 35000 м    8/8 1000 м 
[Cu Sc]
+23.9 +12.3 48 +28  1011.6  -1.5  744  273           
18 20.07.17 160 (Ю) 35000 м    3/3 2000 м средняя 
[Ac trans]
+19.3 +13 67 +26  1011.9  -0.1  744  278    +25.3       
21 20.07.17 190 (Ю) 26000 м    ясно 
+15.1 +13.9 93 +23  1012.8  0.6  745  282           
00 21.07.17 тихо ()   5000 м  дымка  ясно 
+13.2 +12.8 97 +18  1013.1  0.1  745  284           
03 21.07.17 тихо ()   0800 м  туман  ясно 
+11.6 +11.4 99 +15  1013  -0.2  745  286           
06 21.07.17 220 (ЮЗ) 30000 м  {туман}  3/0 верхняя 
[Ci sp]
+19.4 +16.1 81 +32  1012.8  0.4  745  277  +11         
09 21.07.17 250 (З) 24000 м    5/5 1000 м 
[Cu med, cong]
+24.8 +15.9 58 +35  1012.7  0.3  745  272           
12 21.07.17 300 (СЗ) 35000 м    8/4 1000 м средняя 
[Cu med, cong|Ac trans]
+25.7 +14.7 51 +34  1012.3  -0.3  745  271           
15 21.07.17 230 (ЮЗ) 35000 м    3/3 1000 м 
[Cu hum]
+27.3 +13.3 42 +33  1011.9  -0.3  745  270           
18 21.07.17 020 (С) 35000 м    6/0 средняя 
[Ac trans]
+21.7 +16.5 72 +33  1012.8  0.5  745  275    +27.6       
21 21.07.17 030 (СВ) 35000 м    8/0 средняя 
[Ac inh]
+18.9 +15.4 80 +30  1013.4  0.3  745  278           
00 22.07.17 020 (С) 35000 м  в посл. час ливневой дождь  10/3 1000 м кучево-дожд., средняя 
[Cb cap|Ac inh]
+17.2 +15.2 88 +27  1012.6  -0.9  745  279      0.5     
03 22.07.17 050 (СВ) 14000 м  слаб. ливневой дождь{гроза}  10/10 600 м кучево-дожд. 
[Cb cap]
+14.8 +14.4 97 +23  1011.8  -0.9  744  281         
06 22.07.17 030 (СВ) 15000 м  {ливн. осадки, дождь}  10/10 180 м 
[St]
+16 +15.5 97 +26  1011.8  0.1  744  280  +14.8       
09 22.07.17 040 (СВ) 35000 м  в посл. час дождь  9/9 800 м 
[Sc]
+18.1 +16.5 90 +30  1012.7  745  278         
12 22.07.17 010 (С) 35000 м  {дождь}  9/9 1000 м 
[Sc]
+19.9 +15.4 75 +30  1013.7  1.1  746  277           
15 22.07.17 350 (С) 35000 м    6/6 1000 м 
[Sc]
+20.8 +14.6 68 +29  1013.9  0.3  746  276         
18 22.07.17 030 (СВ) 35000 м    1/0 средняя 
[Ac trans]
+16.9 +13.9 82 +25  1015.2  747  281    +21.1     
21 22.07.17 тихо ()   6000 м  дымка  ясно 
+13.1 +12.8 98 +18  1016.1  0.6  747  285           
Время (UTC), дата Ветер
(°,м/с) 
Видим.   Явления Облачность Т
(°С)
Тd
(°С)
f(%) Тe
(°С)
Pmin
(гПа)
dP
(гПа)
Po
(мм)
O2
(г/м3)
Тmin Tmax R s Состояние
почвы

Для получения пояснительной информации подведите курсор к названию столбца.

ПОГОДА в Костюковичи - архив

Всё, что Вы хотите узнать о погоде в Костюковичи - удобно и подробно!

Выберите нужную дату (начиная с 1 января 2015* года) и нажмите кнопку "Найти".
Будут отображены архивные сводки погоды по пункту Костюковичи, начиная с указанной даты.


Отображать данные в формате CSV (для использования в таблицах Excel)


Внимание! Наш архив погоды предназначен исключительно для личного некоммерческого использования в познавательных целях. Если Вам необходимы официальные справки о состоянии погоды (для производственных, юридических, коммерческих и т.п. целей), обращайтесь в органы Росгидромета.

*Примечание: данная дата относится к архиву по метеостанциям СССР (Россия, СНГ, Балтия).
Архив по метеостанциям Зарубежной Европы и Азии (кроме Китая) хранится 10 дней, по другим регионам земного шара (Китай, Африка, Америка, Австралия, Океания) - 1 день.

Костюковичи - район местоположения метеостанции


Название, широта, долгота, высота метеостанции:
Костюковичи 53.3°ш. 32.1°д. 167 м над ур. моря [Беларусь]

Дополнительная информация

В oтличие oт бoльшинства пoгoдных сайтoв мы публикуем пoдрoбную метеoинфoрмацию в детальнoм прoфессиoнальнoм фoрмате.

Характеристики температуры и влажнoсти вoздуха измеряются на высoте 2 м в тени вдали oт зданий и деревьев.
Скoрoсть ветра измеряется на высoте 10 м (на урoвне рoста челoвека скoрoсть ветра ниже в 1.5-2 раза). Если метеoстанция нахoдится в гoрoде или в лесу, тo скoрoсть ветра занижена на 2-4 м/с пo сравнению с oткрытым местoм. Скoрoсть ветра над акватoриями крупных рек и oзёр, а также на вершинах хoлмoв на 2-5 м/с выше, чем в oбычных услoвиях.
Атмoсфернoе давление в разных тoчках местнoсти мoжет значительнo oтличаться oт давления на метеoстанции, в зависимoсти oт услoвий рельефа (при пoдъёме на 10 м давление пoнижается примернo на 1 мм рт.ст.).